Temperature
23 24 22 21 21 21 21 21 20 20 20 20 20 20 20 20 20 20 20 19 19 19 19 19 19 19 19 19 19 20 20 20 20 20 20 20 19 19 18 18 17 18 18
24 24 23 22 21 21 21 21 21 20 20 20 20 20 20 20 20 20 20 20 19 19 19 19 19 20 20 20 20 20 20 20 20 20 20 20 19 19 18 18 18 18 18
24 24 23 22 21 21 21 21 20 20 20 20 20 20 20 20 20 20 20 20 20 19 19 19 20 20 20 20 20 20 20 20 20 19 19 19 19 19 19 18 18 18 18
24 24 23 22 22 21 21 21 20 20 20 20 20 20 20 20 20 20 20 20 20 20 20 20 20 20 20 20 20 20 20 20 20 19 18 18 18 19 19 19 19 18 18
24 24 24 23 22 21 21 21 21 20 20 20 20 20 20 20 20 20 20 20 20 20 20 20 20 20 20 20 20 20 20 20 20 20 19 18 18 19 19 19 19 19 19
23 24 24 23 22 22 21 21 21 21 21 20 20 20 20 20 20 20 20 20 20 20 20 20 20 20 20 20 20 20 20 20 20 19 19 18 18 19 19 19 19 19 19
22 24 24 23 22 22 21 21 21 21 21 20 20 20 20 20 20 20 20 20 20 20 20 20 19 19 20 19 19 19 19 20 19 19 18 18 18 18 18 18 19 19 19
23 23 24 23 23 22 22 21 21 21 21 20 20 20 20 20 20 20 20 20 20 19 19 19 19 19 19 19 19 19 19 19 19 19 18 18 18 18 18 18 18 18 18
23 23 24 23 23 22 22 22 21 21 21 21 21 20 20 20 20 20 20 20 19 19 19 19 19 19 19 19 19 19 19 19 19 19 18 18 18 18 18 18 18 18 18
23 23 23 23 23 22 22 22 21 21 21 21 21 20 20 20 20 20 20 20 19 19 19 19 19 19 19 19 19 19 19 19 19 19 19 18 18 18 18 18 18 18 18
24 23 23 22 23 22 22 22 21 21 21 21 20 20 20 20 20 19 19 19 19 19 19 19 19 19 19 19 19 19 19 19 19 19 19 19 19 19 18 18 18 18 18
25 23 23 22 21 21 21 21 21 21 21 20 20 20 20 20 19 18 18 18 19 19 19 19 19 19 19 19 19 19 18 19 19 18 19 19 19 19 18 18 18 18 18
24 24 23 22 21 21 21 20 20 20 20 20 20 19 19 19 19 19 19 19 19 19 19 19 19 19 19 19 18 18 18 18 18 18 19 19 19 19 18 18 19 19 18
24 24 24 23 21 21 21 21 20 20 20 19 19 19 19 19 19 19 19 19 18 18 18 19 18 18 18 18 18 18 18 18 18 19 19 19 19 18 18 18 19 19 19
24 23 24 23 22 21 21 21 20 20 20 20 19 19 19 19 19 18 18 19 19 19 18 18 18 18 18 18 18 18 18 18 19 19 19 19 19 19 18 19 19 19 19
23 23 23 22 21 21 21 21 20 20 20 20 19 19 19 19 19 18 18 18 18 18 18 18 18 18 18 18 18 18 18 18 19 19 19 19 19 19 19 19 19 19 19
24 23 23 22 21 21 20 20 20 20 20 19 19 19 19 19 19 18 18 18 18 18 18 18 18 18 18 18 18 18 18 18 19 19 19 19 19 19 19 19 19 19 19
24 23 22 22 21 21 20 20 20 20 19 19 19 19 19 18 18 18 18 18 18 18 18 18 18 17 17 17 17 18 18 18 18 19 19 19 19 19 19 19 19 19 19
24 23 22 22 21 21 20 20 20 20 19 19 19 19 18 18 18 18 17 17 17 17 17 17 17 17 17 17 17 17 18 18 18 18 18 19 19 19 19 19 19 19 19
24 23 22 21 21 20 20 20 20 20 20 20 20 19 18 18 18 17 17 17 17 17 17 17 17 17 16 17 17 17 17 18 18 18 18 19 19 19 19 19 19 19 19
22 22 21 21 21 20 20 20 20 20 20 20 20 19 19 18 18 17 17 16 16 16 16 16 16 16 16 16 16 17 17 18 18 18 19 19 19 19 19 19 19 19 19
21 21 21 21 21 20 21 21 21 21 20 20 20 19 19 18 17 17 17 16 16 16 16 16 16 15 15 16 16 16 17 17 18 19 19 19 19 19 19 19 19 19 19
19 20 20 20 20 20 20 20 20 20 20 20 20 19 19 18 18 17 17 16 16 16 15 15 15 15 15 15 15 15 16 17 18 18 19 19 20 19 19 19 19 19 19
18 19 20 20 20 20 20 20 20 20 20 20 20 19 19 18 18 17 17 16 16 16 16 15 15 15 15 15 15 15 15 15 16 16 17 18 19 19 19 19 19 19 19
17 18 19 19 19 19 19 19 19 19 19 19 19 19 19 18 18 17 17 16 16 16 16 15 16 15 15 15 14 14 15 15 15 15 16 17 18 18 19 19 19 19 18
17 17 17 18 18 18 18 18 18 18 18 19 19 19 18 18 18 17 17 16 16 16 16 16 15 15 15 15 14 14 14 14 15 15 15 16 16 17 18 18 18 18 18
Wind_Speed
19 20 22 18 16 15 15 17 18 17 16 15 14 13 12 11 11 11 12 12 12 12 12 11 11 11 10 10 10 10 10 10 9 10 11 11 11 10 9 8 7 13 13
22 21 22 19 16 16 16 16 17 17 16 15 13 12 11 10 10 10 10 10 10 10 10 10 10 10 9 9 9 8 7 6 6 7 8 10 10 8 7 7 8 13 12
22 21 21 19 17 16 15 15 15 15 15 14 13 12 11 10 9 9 8 8 8 8 8 8 8 8 8 8 7 7 5 4 2 3 6 9 11 9 7 8 11 11 10
22 20 20 20 18 16 16 15 15 15 14 13 13 11 10 9 8 8 8 7 7 7 7 7 7 7 7 6 5 5 4 2 2 5 8 8 11 12 10 7 7 8 8
20 19 21 21 18 17 16 15 15 14 13 13 12 11 10 9 8 7 7 6 6 6 5 5 5 5 5 5 4 3 2 2 5 9 12 6 13 15 12 9 7 6 7
19 19 21 21 19 17 16 15 14 14 13 12 12 11 10 9 8 7 6 6 6 5 5 5 5 5 4 4 4 4 4 5 7 11 12 4 13 16 14 11 9 8 7
19 19 20 20 18 17 15 14 14 13 12 12 11 10 10 9 8 8 7 7 7 7 6 6 6 6 7 7 6 7 7 8 10 12 11 5 12 18 15 13 11 10 9
20 19 19 19 18 16 15 14 13 13 12 11 11 10 10 9 9 9 9 9 9 9 9 8 8 8 8 9 9 10 10 11 11 12 12 7 15 19 16 14 13 12 12
20 19 17 18 17 16 16 15 14 14 13 12 12 11 11 10 10 11 11 11 11 11 11 11 11 11 11 11 12 12 12 13 13 13 13 8 17 19 17 15 14 14 14
20 19 17 17 16 15 15 15 15 14 14 13 13 12 12 12 13 14 14 15 14 14 14 13 13 14 14 14 15 15 15 14 15 16 15 12 20 21 18 17 15 15 15
18 18 17 17 15 15 15 17 16 14 14 14 13 14 13 13 14 16 19 19 19 18 17 16 16 16 16 17 18 19 17 14 15 16 16 15 21 22 20 18 17 17 16
14 17 16 17 16 14 13 15 14 14 15 15 14 15 15 14 14 14 15 21 21 21 19 19 18 17 16 15 18 23 16 17 17 15 14 16 23 23 20 19 18 17 17
11 11 15 14 14 12 7 11 9 10 11 15 15 13 13 11 11 11 8 12 17 18 16 16 17 16 15 14 12 12 17 16 13 13 11 17 22 22 21 19 18 18 18
11 11 12 14 13 8 6 6 6 5 5 7 12 14 10 5 5 5 4 5 8 11 9 10 8 12 13 13 11 7 10 11 10 8 7 18 21 22 21 20 19 19 20
12 12 9 10 10 8 4 2 4 4 3 5 5 9 9 5 5 5 4 3 5 6 4 5 5 5 4 4 5 6 7 7 8 8 8 17 20 21 22 21 20 20 21
14 13 11 10 10 8 6 4 2 2 1 2 1 2 3 3 3 4 4 4 4 5 6 4 5 5 4 5 7 7 7 7 7 7 9 14 21 24 24 23 23 23 23
15 13 12 11 12 10 8 7 5 4 3 2 1 2 3 3 3 3 4 5 5 7 7 5 6 5 7 8 9 9 8 7 8 8 10 11 13 21 25 25 25 25 25
16 14 12 12 13 11 7 6 4 4 2 2 3 4 5 4 5 3 5 5 4 5 4 6 6 7 7 7 8 8 8 9 11 10 11 12 13 14 19 25 27 26 26
14 14 11 8 11 11 9 7 6 4 3 3 4 4 4 4 4 3 3 3 3 4 4 6 4 4 6 7 8 9 9 10 10 13 12 12 13 15 15 18 27 29 28
12 13 11 8 8 9 7 6 4 5 5 5 4 4 4 2 0 2 3 4 4 4 4 4 5 5 5 6 10 10 7 9 9 11 12 12 11 15 17 17 17 23 29
9 9 10 9 8 6 4 4 4 3 2 1 2 5 4 1 2 1 3 4 4 4 5 6 6 7 7 6 7 8 8 10 11 10 11 11 11 11 13 13 12 13 16
6 8 6 9 8 6 5 3 3 2 0 1 1 4 4 3 1 3 2 3 5 5 6 6 6 5 6 6 6 8 7 8 7 11 10 11 12 10 11 12 10 11 11
8 6 4 6 6 4 6 3 3 3 2 3 3 3 5 3 2 1 2 3 4 5 5 6 6 7 6 6 6 5 5 5 7 7 8 7 8 8 8 7 8 8 11
11 5 5 4 4 2 1 2 3 3 2 2 2 3 5 4 4 3 3 4 4 4 6 6 5 5 6 7 6 6 7 8 8 7 8 9 7 6 7 6 5 4 5
12 12 12 9 6 5 4 5 5 5 5 3 1 2 4 5 6 6 6 4 3 4 6 5 6 6 5 6 7 7 8 8 8 8 9 8 7 5 3 3 2 1 1
14 13 13 13 13 11 9 8 7 8 8 8 6 5 3 4 5 8 8 6 4 4 5 5 6 7 6 7 7 7 7 7 7 7 8 8 8 7 4 1 2 2 3
Wind_Direction
126 134 135 132 126 121 122 129 134 134 133 131 127 121 115 110 104 100 98 99 102 102 97 92 88 84 83 86 85 82 82 83 87 91 95 95 96 96 94 93 110 104 104
127 133 134 132 129 126 127 132 136 136 136 134 131 126 122 116 111 106 104 104 104 104 101 96 93 91 89 91 93 92 89 92 103 116 122 118 112 105 95 69 69 113 114
126 133 135 133 132 129 130 133 136 137 137 136 133 130 127 123 118 114 110 108 107 107 105 102 100 99 99 100 103 107 109 111 137 165 178 157 132 125 109 89 96 113 118
130 139 139 137 136 135 134 136 138 139 139 138 137 136 135 133 131 127 121 116 113 112 110 109 109 108 109 111 113 115 125 161 232 246 236 206 150 139 132 120 120 127 131
133 137 139 143 142 141 140 141 142 144 145 145 144 144 145 145 145 144 142 140 137 133 130 127 124 122 124 128 134 144 170 231 262 266 266 226 141 147 146 145 148 151 152
134 138 144 147 147 148 147 148 149 151 152 153 154 155 156 158 160 163 165 167 169 168 168 167 165 163 165 172 184 200 221 244 265 263 263 205 143 154 155 160 170 176 178
139 139 148 151 151 152 153 155 156 158 160 162 164 167 171 174 179 184 189 194 198 199 201 202 202 199 198 203 212 222 231 244 255 274 281 241 154 157 162 169 183 192 195
138 140 147 153 155 157 160 163 165 167 170 173 176 180 186 191 197 203 207 210 213 215 217 219 221 221 220 221 224 230 236 247 252 255 260 236 161 163 169 176 189 203 208
141 140 150 158 162 165 169 172 175 177 180 185 189 194 200 206 213 219 223 224 225 225 226 227 229 231 231 232 232 233 236 241 258 270 267 226 173 175 178 182 192 208 217
142 146 157 161 165 171 176 181 183 186 189 194 200 206 212 218 224 228 229 227 228 228 228 230 232 234 236 237 237 237 237 240 245 253 257 236 187 184 187 191 199 210 220
149 150 164 163 167 176 181 182 186 193 199 203 210 216 220 227 228 226 228 227 224 225 226 228 231 234 237 240 239 237 235 236 239 242 245 226 188 187 190 195 203 213 220
155 160 167 166 167 181 188 171 185 195 199 205 213 210 214 227 241 247 229 221 223 224 225 227 231 235 237 242 240 231 227 230 240 246 245 203 183 187 191 198 206 214 221
165 177 166 161 162 183 183 164 187 197 192 199 217 218 215 227 241 259 257 217 219 225 227 230 229 232 233 234 243 228 215 228 232 238 237 191 186 189 195 202 210 218 223
177 188 176 156 159 181 193 183 181 192 184 195 203 216 218 214 232 250 262 246 217 222 223 234 226 222 226 235 237 240 222 225 236 239 206 185 192 197 201 207 214 221 225
177 184 175 147 148 161 194 249 207 203 198 207 200 206 216 215 228 246 258 267 268 263 243 226 249 258 255 266 266 259 257 255 250 241 229 200 199 204 209 211 216 221 226
176 179 162 154 151 159 168 190 270 292 265 268 216 242 221 223 231 253 263 265 271 286 296 294 281 275 270 265 264 265 266 269 266 256 243 218 210 211 214 216 217 219 222
176 169 155 169 163 169 176 185 197 228 229 223 178 236 238 232 234 246 259 263 260 269 276 276 274 269 265 258 253 250 252 254 257 255 254 252 233 220 217 220 220 219 220
174 160 162 179 167 162 163 176 202 220 192 191 203 210 217 224 222 223 242 250 251 254 252 256 253 259 262 264 264 260 253 247 247 243 243 244 244 243 227 223 222 221 220
161 152 162 165 148 157 164 177 198 186 183 211 208 192 183 208 225 215 248 254 249 253 254 267 263 244 259 262 264 256 248 247 247 248 242 238 236 234 235 229 222 221 220
152 151 152 149 142 152 168 176 185 173 188 202 191 157 149 198 260 48 316 346 348 317 300 301 311 289 268 262 270 272 260 252 246 242 243 242 235 232 232 234 223 221 221
144 136 147 152 144 160 165 170 166 154 184 186 167 124 113 73 10 26 304 336 317 302 321 321 312 305 297 286 281 277 262 254 246 240 236 237 236 232 231 227 219 212 215
102 106 126 132 146 170 135 115 122 112 252 243 98 132 162 191 196 284 0 332 320 328 307 289 290 289 292 296 296 296 291 279 266 256 234 227 229 229 230 231 219 211 209
55 93 128 134 142 160 137 175 172 150 211 231 192 184 165 157 182 262 308 298 312 304 299 323 311 295 295 297 287 285 294 289 307 297 297 267 232 219 219 223 226 219 211
17 29 48 75 105 107 148 263 268 245 244 257 219 185 150 166 200 205 227 258 279 291 297 295 315 328 308 297 291 281 276 286 292 299 303 305 289 243 220 214 223 220 205
29 18 28 24 30 17 345 324 317 296 288 283 278 167 171 203 203 202 205 216 247 268 279 296 302 290 284 284 289 292 291 288 275 271 283 292 301 294 258 216 204 128 82
38 26 25 27 25 14 2 344 322 307 305 307 309 300 262 233 209 201 196 193 220 253 279 286 282 280 272 272 277 279 280 280 284 277 273 280 282 283 278 234 147 119 91
Height
1500 1503 1506 1509 1512 1515 1518 1520 1522 1524 1526 1528 1529 1531 1532 1533 1534 1536 1537 1538 1540 1541 1543 1544 1545 1545 1546 1547 1548 1549 1550 1551 1552 1552 1552 1553 1553 1553 1554 1554 1555 1556 1557
1499 1503 1507 1510 1513 1516 1519 1521 1523 1525 1527 1529 1531 1532 1534 1535 1536 1538 1539 1540 1542 1543 1544 1545 1546 1547 1548 1549 1549 1550 1551 1552 1553 1554 1554 1555 1555 1555 1555 1556 1556 1558 1559
1500 1504 1507 1510 1513 1516 1519 1522 1524 1526 1528 1530 1532 1534 1535 1536 1538 1539 1541 1542 1543 1544 1545 1546 1547 1548 1549 1550 1550 1551 1552 1553 1554 1555 1555 1556 1557 1557 1557 1558 1558 1559 1560
1500 1504 1508 1511 1514 1517 1520 1522 1525 1527 1529 1531 1533 1535 1536 1538 1539 1541 1542 1543 1544 1545 1546 1547 1548 1549 1550 1550 1551 1552 1553 1554 1555 1556 1556 1558 1558 1559 1560 1559 1560 1560 1561
1501 1505 1508 1511 1514 1517 1520 1523 1525 1528 1530 1531 1533 1535 1537 1538 1540 1541 1542 1544 1545 1546 1547 1548 1549 1549 1550 1551 1552 1552 1553 1554 1555 1556 1557 1559 1559 1560 1561 1561 1561 1561 1562
1502 1505 1508 1511 1514 1517 1520 1523 1525 1527 1529 1531 1533 1535 1537 1538 1540 1541 1542 1543 1545 1546 1547 1547 1548 1549 1550 1551 1551 1552 1553 1554 1555 1556 1557 1560 1559 1560 1561 1561 1561 1562 1562
1504 1505 1509 1512 1514 1517 1520 1522 1525 1527 1529 1531 1533 1535 1536 1538 1539 1540 1542 1543 1544 1544 1545 1546 1547 1548 1549 1550 1550 1551 1552 1553 1554 1554 1556 1558 1558 1558 1559 1560 1561 1561 1562
1504 1506 1509 1512 1514 1517 1520 1522 1525 1527 1529 1531 1533 1534 1536 1537 1538 1540 1541 1541 1542 1543 1544 1544 1545 1546 1547 1548 1548 1549 1550 1551 1552 1553 1554 1556 1556 1556 1557 1558 1559 1560 1561
1505 1506 1510 1512 1514 1516 1519 1521 1524 1526 1528 1530 1532 1534 1535 1536 1537 1538 1539 1540 1541 1541 1542 1543 1543 1544 1545 1545 1546 1547 1548 1549 1549 1550 1552 1553 1553 1554 1555 1556 1557 1557 1558
1505 1506 1509 1511 1514 1516 1518 1521 1523 1525 1527 1529 1531 1532 1534 1535 1536 1537 1537 1538 1539 1540 1540 1541 1541 1542 1542 1543 1543 1544 1545 1546 1546 1547 1548 1550 1550 1551 1552 1553 1554 1554 1555
1505 1505 1508 1510 1512 1515 1517 1519 1522 1524 1526 1527 1529 1530 1531 1532 1533 1534 1535 1536 1537 1538 1538 1539 1539 1540 1540 1540 1541 1541 1542 1542 1543 1544 1545 1546 1547 1548 1549 1549 1550 1551 1552
1505 1506 1507 1509 1510 1514 1516 1518 1520 1522 1523 1525 1527 1528 1529 1530 1531 1533 1533 1534 1534 1535 1536 1536 1537 1537 1537 1537 1538 1538 1539 1539 1539 1540 1541 1542 1543 1545 1545 1546 1546 1547 1548
1502 1506 1507 1509 1509 1513 1516 1517 1519 1520 1522 1522 1524 1525 1526 1527 1528 1530 1531 1531 1531 1532 1532 1532 1533 1533 1534 1534 1535 1536 1536 1536 1536 1537 1538 1538 1539 1541 1542 1543 1543 1544 1545
1500 1503 1506 1507 1508 1511 1515 1517 1518 1520 1521 1521 1521 1522 1523 1524 1525 1526 1527 1528 1529 1529 1529 1529 1530 1530 1531 1532 1533 1533 1533 1533 1534 1534 1533 1533 1534 1536 1537 1539 1539 1540 1541
1496 1500 1503 1504 1506 1508 1511 1513 1516 1518 1519 1520 1519 1519 1520 1520 1522 1523 1523 1524 1525 1526 1526 1526 1527 1527 1528 1529 1529 1529 1530 1530 1530 1530 1530 1530 1531 1532 1533 1535 1535 1536 1538
1493 1496 1499 1500 1503 1505 1507 1509 1512 1513 1515 1516 1516 1517 1517 1517 1518 1519 1519 1520 1520 1521 1522 1522 1523 1523 1523 1523 1524 1524 1525 1525 1525 1525 1525 1526 1525 1526 1528 1529 1531 1532 1533
1489 1492 1494 1497 1499 1502 1504 1506 1508 1510 1512 1512 1513 1513 1514 1514 1515 1515 1516 1516 1516 1517 1517 1517 1518 1518 1518 1518 1518 1518 1518 1518 1518 1519 1519 1521 1521 1521 1523 1524 1525 1527 1528
1485 1487 1490 1494 1496 1498 1500 1503 1505 1507 1509 1509 1510 1510 1511 1511 1512 1512 1512 1513 1513 1513 1513 1513 1513 1513 1513 1513 1513 1513 1512 1512 1512 1512 1513 1513 1515 1516 1517 1518 1519 1521 1522
1478 1480 1485 1490 1492 1495 1497 1499 1501 1504 1506 1507 1507 1508 1508 1509 1510 1510 1510 1511 1510 1510 1510 1510 1510 1509 1509 1508 1508 1507 1507 1506 1506 1506 1506 1506 1507 1508 1510 1511 1512 1514 1516
1471 1473 1478 1484 1489 1492 1495 1497 1499 1501 1503 1504 1506 1506 1507 1507 1508 1508 1508 1508 1508 1507 1507 1507 1507 1506 1505 1504 1503 1503 1502 1501 1501 1500 1500 1501 1501 1502 1503 1504 1506 1508 1509
1468 1470 1475 1482 1485 1489 1493 1495 1497 1499 1501 1503 1504 1504 1505 1505 1506 1505 1505 1504 1504 1504 1504 1503 1502 1502 1501 1501 1500 1498 1496 1496 1495 1494 1494 1495 1496 1496 1497 1498 1500 1501 1502
1463 1465 1474 1480 1485 1488 1491 1493 1495 1497 1498 1501 1502 1502 1502 1502 1502 1503 1502 1501 1501 1500 1499 1499 1499 1498 1497 1497 1496 1495 1492 1492 1490 1490 1489 1488 1489 1490 1491 1493 1494 1495 1496
1461 1467 1478 1484 1486 1489 1490 1492 1494 1495 1496 1498 1499 1499 1499 1499 1499 1499 1498 1497 1497 1496 1496 1496 1495 1494 1493 1493 1493 1493 1490 1487 1486 1484 1484 1484 1484 1484 1486 1488 1490 1490 1491
1473 1476 1484 1486 1488 1490 1491 1492 1493 1494 1495 1496 1497 1497 1496 1496 1496 1496 1495 1494 1493 1493 1492 1492 1492 1490 1489 1488 1488 1488 1488 1487 1485 1481 1479 1479 1479 1480 1481 1483 1485 1486 1486
1479 1481 1486 1486 1488 1488 1490 1491 1491 1493 1493 1494 1494 1494 1494 1493 1493 1492 1491 1491 1490 1490 1489 1488 1487 1486 1485 1484 1484 1483 1483 1482 1481 1481 1478 1476 1476 1477 1477 1477 1480 1482 1482
1481 1483 1484 1485 1484 1485 1486 1488 1489 1490 1490 1491 1491 1491 1491 1491 1490 1489 1488 1487 1487 1486 1486 1485 1484 1482 1482 1481 1480 1479 1478 1477 1476 1476 1475 1474 1473 1474 1474 1474 1475 1476 1477